User: anonymous   Login
Location: Bessat
(45.8735°N, 1.9924°E)
Time: 13:19:45
(UTC+00:00)
Language:

COSMOS 2406 - Orbit

View from above orbital plane
View from above orbital plane
View from above satellite
View from above satellite

Ground track
Ground track

The orbit data is extracted from the following two-line orbital elements,

1 28352U 04021A   21211.73994619 -.00000326  00000-0 -15305-3 0  9992
2 28352  71.0025 222.9465 0014030 339.1318  20.9228 14.11705059883132
Epoch (UTC): 30 July 2021 17:45:31
Eccentricity: 0.0014030
inclination: 71.0025°
perigee height: 843 km
apogee height: 863 km
right ascension of ascending node: 222.9465°
argument of perigee: 339.1318°
revolutions per day: 14.11705059
mean anomaly at epoch: 20.9228°
orbit number at epoch: 88313

The dashed part of the orbit path shows where the satellite is in the earth's shadow,  

DLR